Location: Lake Sonoma
(38.7200°N, 123.0564°W)
Time: 00:56:31
(UTC-08:00)

Daily predictions for brighter satellites

Satellite Brightness Start Highest point End
(mag) Time Altitude Azimuth Time Altitude Azimuth Time Altitude Azimuth
CZ-3 R/B 4.0 03:20:51 53° S 03:22:08 53° S 03:32:05 10° ESE
Cosmos 2227 Rocket 4.5 03:30:19 19° NE 03:31:12 19° NE 03:35:10 10° E
Cosmos 2297 Rocket 4.4 03:43:26 17° NNE 03:45:55 22° NE 03:50:12 10° ESE
NOSS 3-2 (C) 4.1 04:26:36 59° SSW 04:26:36 59° SSW 04:33:46 10° SSE
ATLAS 2AS CENTAUR R/B 4.5 04:26:46 21° NNW 04:26:46 21° NNW 04:32:02 10° NNE
Cosmos 990 Rocket 4.5 04:35:11 47° SSE 04:36:19 59° ESE 04:41:30 10° NNE
Cosmos 2369 4.0 04:36:07 47° S 04:37:37 66° ESE 04:43:18 10° NNE
Lacrosse 5 rocket 3.9 04:39:32 12° NNE 04:40:18 12° NNE 04:41:57 10° NE
Cosmos 1980 Rocket 4.4 04:38:01 10° SSE 04:42:24 23° E 04:46:47 10° NE
Cosmos 2298 Rocket 4.3 04:42:38 36° S 04:44:42 64° ESE 04:49:57 10° NNE
SJ 16-02 4.3 04:42:10 10° SE 04:44:48 16° E 04:47:26 10° ENE
Centaur D-1A AC-31 3.0 04:45:38 29° S 04:46:50 32° SSE 04:58:12 10° ESE
OAO 3 Rocket 3.6 04:47:29 54° SSE 04:47:29 54° SSE 04:52:00 10° E
IDEFIX/ARIANE 42P 3.6 04:53:44 10° NNE 04:58:44 45° E 05:03:42 10° S
Okean O Rocket 3.3 04:54:40 10° N 04:56:20 22° N 04:56:20 22° N
Cosmos 2098 Rocket 4.5 05:02:29 35° NW 05:02:29 35° NW 05:06:42 10° N
Cosmos 1656 3.4 04:59:51 42° SSW 05:01:46 85° WNW 05:07:14 10° NNE
Cosmos 1869 Rocket 4.5 04:58:06 10° N 05:02:24 49° E 05:06:41 10° SSE
Cosmos 1934 Rocket 4.5 04:56:50 10° S 05:03:02 63° E 05:09:20 10° NNE
Cosmos 2150 Rocket 3.9 05:00:13 26° SSW 05:03:14 84° ESE 05:08:24 10° NNE
CENTAUR R/B 3.0 04:57:21 18° NW 05:03:52 79° WSW 05:12:22 10° SSE
BREEZE-M DEB (TANK) 3.7 05:03:20 54° W 05:04:17 66° SSW 05:17:36 10° SE
Cosmos 1697 Rocket 2.7 05:08:55 10° SSW 05:14:30 80° ESE 05:20:08 10° NNE
Cosmos 2227 Rocket 2.1 05:12:15 23° NW 05:15:43 63° WSW 05:21:15 10° S
Cosmos 1821 Rocket 3.8 05:10:40 10° SSW 05:16:44 74° W 05:22:57 10° N
Meteor 2-10 Rocket 3.4 05:12:31 10° S 05:17:39 85° E 05:22:41 10° N
STPSAT 2 (USA 217) 4.5 05:16:28 43° NW 05:17:47 64° WSW 05:22:16 10° S
Cosmos 1535 Rocket 4.3 05:21:09 10° SSW 05:27:18 72° W 05:33:26 10° N
SKYMED 2 3.6 05:23:00 10° SSE 05:27:20 80° ENE 05:31:41 10° N
Cosmos 1862 3.4 05:25:37 10° N 05:29:37 78° E 05:33:35 10° S
Cosmos 2297 Rocket 2.2 05:25:20 13° NNW 05:30:17 54° WSW 05:35:47 10° S
IRS-1C Rocket 4.3 05:25:50 10° N 05:30:50 45° WNW 05:35:26 12° SW
BREEZE M DEB (TANK) 3.8 05:32:29 12° N 05:32:29 12° N 05:32:50 10° NNE
CZ-4B R/B 3.8 05:29:07 10° N 05:33:58 35° WNW 05:36:17 24° WSW
PAYLOAD A 3.7 05:32:13 10° N 05:36:58 80° WNW 05:41:49 10° SSW
DELTA 2 R/B(2) 4.3 05:37:29 38° SSE 05:37:30 38° SSE 05:39:32 10° E
MTI 3.9 05:36:08 10° SSE 05:39:18 74° ENE 05:42:30 10° N
Tiangong 1 0.2 05:42:27 71° S 05:42:27 71° S 05:44:42 10° ESE
Cosmos 2360 4.4 05:38:20 10° SSW 05:44:02 76° ESE 05:49:46 10° NNE
Okean-O 2.5 05:42:06 10° N 05:46:31 71° WNW 05:50:55 10° SSW
ASTRO E2 4.1 05:44:47 18° SW 05:46:49 28° S 05:50:17 10° ESE
Aureole 1 Rocket 4.1 05:45:53 10° NNW 05:53:30 65° WSW 05:59:26 10° S
Cosmos 2082 4.2 05:50:09 10° NW 05:55:20 37° WSW 06:00:31 10° S
Cosmos 2278 4.5 05:52:16 16° WSW 05:56:01 31° WNW 06:01:03 10° N
EO 1 Del DPAF 3.2 05:53:51 10° SSE 05:57:40 89° W 06:01:31 10° NNW
Genesis I 4.3 05:59:14 19° W 06:00:54 26° NW 06:04:17 10° N
Cosmos 1125 Rocket 3.5 05:55:57 10° SSW 06:01:09 89° NW 06:06:22 10° NNE
Cosmos 1605 Rocket 3.9 05:55:43 10° SSW 06:01:49 66° W 06:07:54 10° N
CZ-2C R/B 2.5 05:57:51 10° N 06:02:49 63° WNW 06:07:53 10° SSW
Feng Yun 1-1 Rocket 4.5 06:00:51 10° N 06:06:06 47° WNW 06:11:28 10° SW
Cosmos 2263 Rocket 4.3 06:01:29 10° N 06:06:08 26° ENE 06:10:47 10° ESE
Radarsat Rocket 3.9 06:01:21 10° N 06:07:05 62° WNW 06:13:01 10° SSW
COSMOS 2441 4.3 06:02:14 10° N 06:07:07 70° WNW 06:11:59 10° SSW
Cosmos 158 Rocket 3.9 06:05:40 10° NNW 06:10:39 67° WSW 06:15:44 10° S
Cosmos 2322 Rocket 3.6 06:06:33 10° S 06:11:50 42° ESE 06:17:10 10° NE
Cosmos 1862 Rocket 3.6 06:08:36 10° S 06:12:56 86° E 06:17:18 10° N
COSMO-SKYMED 1 3.4 06:11:49 10° SSW 06:15:33 28° W 06:19:19 10° NW
DELTA 2 R/B(2) 3.8 06:13:04 14° W 06:15:42 59° SSW 06:17:40 10° ESE
Hubble Space Telescope 3.4 06:14:56 10° SSW 06:16:57 13° SSE 06:18:58 10° SE
Cosmos 1733 Rocket 3.0 06:13:09 10° N 06:17:31 85° W 06:21:54 10° S
Landsat 4 4.3 06:14:44 10° SSW 06:18:09 34° W 06:21:35 10° NNW
Cosmos 372 Rocket 4.0 06:14:34 10° SSW 06:19:35 59° WNW 06:24:39 10° N
Lacrosse 5 rocket 1.5 06:16:11 10° NW 06:20:04 69° NE 06:24:11 10° SE
SJ 16-02 1.7 06:18:47 10° SW 06:22:58 42° WNW 06:27:11 10° N
Meteor 1-26 Rocket 4.3 06:19:27 10° SSW 06:25:21 76° W 06:31:15 10° N
Cosmos 1980 Rocket 2.5 06:20:37 10° SW 06:26:03 46° WNW 06:31:30 10° N
Cosmos 1441 Rocket 3.3 06:22:47 10° SSW 06:26:43 63° W 06:30:41 10° N
Cosmos 405 3.1 06:25:32 10° NNW 06:29:00 52° W 06:32:28 10° S
Aureole 3 2.7 06:26:25 10° N 06:29:27 82° E 06:32:26 10° S
OAO 3 Rocket 3.9 06:25:41 10° W 06:30:26 46° SSW 06:35:11 10° ESE
Cosmos 1269 Rocket 4.0 06:30:14 10° NNW 06:35:32 81° WSW 06:40:48 10° SSE
Meteor 1-14 Rocket 4.4 06:32:04 10° N 06:38:05 84° W 06:44:01 10° S
